EST,Max TemperatureF,Mean TemperatureF,Min TemperatureF,Max Dew PointF,MeanDew PointF,Min DewpointF,Max Humidity, Mean Humidity, Min Humidity, Max Sea Level PressureIn, Mean Sea Level PressureIn, Min Sea Level PressureIn, Max VisibilityMiles, Mean VisibilityMiles, Min VisibilityMiles, Max Wind SpeedMPH, Mean Wind SpeedMPH, Max Gust SpeedMPH,PrecipitationIn, CloudCover, Events, WindDirDegrees
2013-1-1,25,22,18,17,12,10,74,64,53,30.14,30.07,30.02,10,10,10,14,6,20,0.00,8,Snow,281
2013-1-2,26,21,16,22,16,11,85,78,68,30.14,30.10,30.04,10,10,4,10,4,,0.00,8,Snow,226
2013-1-3,29,25,21,23,20,16,84,78,71,30.10,30.05,29.99,10,9,5,14,8,21,0.00,8,Snow,237
2013-1-4,33,30,26,24,22,20,86,75,65,30.12,29.99,29.92,10,10,10,22,14,31,0.00,4,,246
2013-1-5,35,24,13,32,24,12,99,88,69,30.22,30.09,29.92,10,6,1,10,4,18,0.00,3,Snow,201
2013-1-6,35,32,28,34,30,23,97,88,73,30.24,29.96,29.82,10,7,2,13,8,20,0.00,8,Snow,254
2013-1-7,36,32,28,27,24,20,88,72,50,30.28,30.17,30.04,10,10,10,24,7,31,0.00,3,,208
2013-1-8,41,34,27,31,27,24,86,78,65,30.18,30.12,30.06,10,9,7,12,7,16,0.00,0,,193
2013-1-9,47,37,27,33,28,23,86,68,40,30.40,30.08,29.91,10,10,7,24,11,39,0.00,3,Rain,240
2013-1-10,43,32,21,33,26,20,96,80,54,30.54,30.42,30.16,10,10,4,9,2,,0.03,1,Rain,116
2013-1-11,51,42,34,51,42,33,99,96,89,30.14,29.83,29.69,10,5,1,13,7,20,0.34,7,Rain-Snow,162
2013-1-12,57,49,40,48,40,31,97,76,48,29.93,29.82,29.73,10,10,7,23,8,31,0.00,1,Rain,216
2013-1-13,39,33,26,36,33,22,100,95,83,30.01,29.88,29.80,10,6,1,17,3,26,0.18,8,Rain-Snow,275
2013-1-14,27,20,12,22,15,11,96,77,60,30.39,30.30,30.02,10,10,5,17,9,24,0.00,3,Snow,268
2013-1-15,28,19,10,22,14,9,96,84,66,30.40,30.31,30.12,10,10,7,8,1,,0.00,0,,205
2013-1-16,35,24,14,31,21,13,95,84,60,30.12,29.88,29.69,10,9,4,18,5,32,0.00,3,Snow,230
2013-1-17,32,24,15,28,16,5,87,73,56,30.31,30.15,29.92,10,9,2,16,6,22,0.00,8,Snow,312
2013-1-18,35,20,4,26,14,1,90,77,60,30.39,30.16,29.82,10,10,3,17,5,26,0.00,3,Snow,198
2013-1-19,42,38,33,36,31,25,96,75,67,29.84,29.71,29.45,10,10,1,17,10,24,0.00,4,Rain-Snow,214
2013-1-20,34,23,12,33,10,3,96,68,57,30.15,29.98,29.47,10,9,0,25,15,38,0.00,6,Snow,277
2013-1-21,14,8,2,10,2,-5,86,69,48,30.11,30.01,29.93,10,10,2,18,7,25,0.00,4,Snow,266
2013-1-22,8,4,0,-4,-6,-9,81,65,51,30.25,30.19,30.08,10,10,10,16,9,22,0.00,3,,268
2013-1-23,16,8,0,13,5,-4,90,82,69,30.24,30.14,30.04,10,7,1,12,4,16,0.00,6,Snow,237
2013-1-24,16,8,-1,6,2,-5,90,74,47,30.60,30.46,30.14,10,10,4,8,3,,0.00,0,Snow,330
2013-1-25,21,16,12,17,12,4,89,81,68,30.47,30.15,29.98,10,6,1,9,5,,0.00,8,Snow,158
2013-1-26,29,19,9,17,14,7,96,78,50,30.40,30.23,30.03,10,10,7,12,2,,0.00,4,Snow,301
2013-1-27,29,18,8,27,17,6,96,79,61,30.43,30.33,30.10,10,8,1,12,3,16,0.03,6,Snow,154
2013-1-28,40,34,28,39,34,27,99,95,89,30.08,29.91,29.80,10,6,1,12,6,17,0.00,8,,199
2013-1-29,54,44,33,54,43,32,100,98,92,29.99,29.69,29.37,10,4,0,12,4,,0.95,8,Fog-Rain-Snow,153
2013-1-30,54,42,30,54,40,25,100,97,78,29.37,29.22,29.06,10,6,1,18,6,28,0.32,8,Rain,299
2013-1-31,29,24,18,23,13,7,81,67,49,29.84,29.57,29.22,10,10,4,23,16,38,0.00,8,Snow,272